Year,Month,Day,Hour,Minute,Value (Times are PST for temperature in C)
2013,12,04,00,00,-4.10
2013,12,04,00,01,-4.10
2013,12,04,00,02,-4.10
2013,12,04,00,03,-4.10
2013,12,04,00,04,-4.10
2013,12,04,00,05,-4.10
2013,12,04,00,06,-4.10
2013,12,04,00,07,-4.10
2013,12,04,00,08,-4.10
2013,12,04,00,09,-4.10
2013,12,04,00,10,-4.10
2013,12,04,00,11,-4.10
2013,12,04,00,12,-4.10
2013,12,04,00,13,-4.10
2013,12,04,00,14,-4.10
2013,12,04,00,15,-4.10
2013,12,04,00,16,-4.10
2013,12,04,00,17,-4.20
2013,12,04,00,18,-4.20
2013,12,04,00,19,-4.20
2013,12,04,00,20,-4.20
2013,12,04,00,21,-4.20
2013,12,04,00,22,-4.20
2013,12,04,00,23,-4.20
2013,12,04,00,24,-4.20
2013,12,04,00,25,-4.20
2013,12,04,00,26,-4.20
2013,12,04,00,27,-4.20
2013,12,04,00,28,-4.30
2013,12,04,00,29,-4.30
2013,12,04,00,30,-4.30
2013,12,04,00,31,-4.30
2013,12,04,00,32,-4.30
2013,12,04,00,33,-4.30
2013,12,04,00,34,-4.30
2013,12,04,00,35,-4.30
2013,12,04,00,36,-4.40
2013,12,04,00,37,-4.40
2013,12,04,00,38,-4.40
2013,12,04,00,39,-4.40
2013,12,04,00,40,-4.40
2013,12,04,00,41,-4.40
2013,12,04,00,42,-4.40
2013,12,04,00,43,-4.40
2013,12,04,00,44,-4.40
2013,12,04,00,45,-4.40
2013,12,04,00,46,-4.40
2013,12,04,00,47,-4.40
2013,12,04,00,48,-4.40
2013,12,04,00,49,-4.50
2013,12,04,00,50,-4.50
2013,12,04,00,51,-4.50
2013,12,04,00,52,-4.50
2013,12,04,00,53,-4.50
2013,12,04,00,54,-4.50
2013,12,04,00,55,-4.60
2013,12,04,00,56,-4.60
2013,12,04,00,57,-4.50
2013,12,04,00,58,-4.60
2013,12,04,00,59,-4.60
2013,12,04,01,00,-4.60
2013,12,04,01,01,-4.60
2013,12,04,01,02,-4.60
2013,12,04,01,03,-4.60
2013,12,04,01,04,-4.60
2013,12,04,01,05,-4.70
2013,12,04,01,06,-4.70
2013,12,04,01,07,-4.60
2013,12,04,01,08,-4.60
2013,12,04,01,09,-4.60
2013,12,04,01,10,-4.60
2013,12,04,01,11,-4.60
2013,12,04,01,12,-4.60
2013,12,04,01,13,-4.60
2013,12,04,01,14,-4.60
2013,12,04,01,15,-4.60
2013,12,04,01,16,-4.60
2013,12,04,01,17,-4.60
2013,12,04,01,18,-4.60
2013,12,04,01,19,-4.60
2013,12,04,01,20,-4.60
2013,12,04,01,21,-4.60
2013,12,04,01,22,-4.60
2013,12,04,01,23,-4.60
2013,12,04,01,24,-4.60
2013,12,04,01,25,-4.60
2013,12,04,01,26,-4.60
2013,12,04,01,27,-4.60
2013,12,04,01,28,-4.60
2013,12,04,01,29,-4.60
2013,12,04,01,30,-4.60
2013,12,04,01,31,-4.70
2013,12,04,01,32,-4.70
2013,12,04,01,33,-4.70
2013,12,04,01,34,-4.70
2013,12,04,01,35,-4.70
2013,12,04,01,36,-4.70
2013,12,04,01,37,-4.70
2013,12,04,01,38,-4.70
2013,12,04,01,39,-4.70
2013,12,04,01,40,-4.70
2013,12,04,01,41,-4.70
2013,12,04,01,42,-4.70
2013,12,04,01,43,-4.70
2013,12,04,01,44,-4.80
2013,12,04,01,45,-4.80
2013,12,04,01,46,-4.80
2013,12,04,01,47,-4.80
2013,12,04,01,48,-4.80
2013,12,04,01,49,-4.80
2013,12,04,01,50,-4.90
2013,12,04,01,51,-4.90
2013,12,04,01,52,-4.90
2013,12,04,01,53,-4.90
2013,12,04,01,54,-4.90
2013,12,04,01,55,-5.00
2013,12,04,01,56,-5.00
2013,12,04,01,57,-5.00
2013,12,04,01,58,-5.00
2013,12,04,01,59,-5.00
2013,12,04,02,00,-5.00
2013,12,04,02,01,-5.10
2013,12,04,02,02,-5.10
2013,12,04,02,03,-5.10
2013,12,04,02,04,-5.10
2013,12,04,02,05,-5.10
2013,12,04,02,06,-5.10
2013,12,04,02,07,-5.10
2013,12,04,02,08,-5.10
2013,12,04,02,09,-5.20
2013,12,04,02,10,-5.20
2013,12,04,02,11,-5.20
2013,12,04,02,12,-5.20
2013,12,04,02,13,-5.20
2013,12,04,02,14,-5.20
2013,12,04,02,15,-5.20
2013,12,04,02,16,-5.20
2013,12,04,02,17,-5.20
2013,12,04,02,18,-5.20
2013,12,04,02,19,-5.20
2013,12,04,02,20,-5.10
2013,12,04,02,21,-5.10
2013,12,04,02,22,-5.10
2013,12,04,02,23,-5.10
2013,12,04,02,24,-5.10
2013,12,04,02,25,-5.10
2013,12,04,02,26,-5.10
2013,12,04,02,27,-5.10
2013,12,04,02,28,-5.10
2013,12,04,02,29,-5.10
2013,12,04,02,30,-5.10
2013,12,04,02,31,-5.20
2013,12,04,02,32,-5.20
2013,12,04,02,33,-5.20
2013,12,04,02,34,-5.20
2013,12,04,02,35,-5.20
2013,12,04,02,36,-5.20
2013,12,04,02,37,-5.20
2013,12,04,02,38,-5.20
2013,12,04,02,39,-5.20
2013,12,04,02,40,-5.20
2013,12,04,02,41,-5.20
2013,12,04,02,42,-5.20
2013,12,04,02,43,-5.20
2013,12,04,02,44,-5.20
2013,12,04,02,45,-5.20
2013,12,04,02,46,-5.20
2013,12,04,02,47,-5.20
2013,12,04,02,48,-5.20
2013,12,04,02,49,-5.20
2013,12,04,02,50,-5.20
2013,12,04,02,51,-5.20
2013,12,04,02,52,-5.20
2013,12,04,02,53,-5.20
2013,12,04,02,54,-5.20
2013,12,04,02,55,-5.20
2013,12,04,02,56,-5.20
2013,12,04,02,57,-5.20
2013,12,04,02,58,-5.20
2013,12,04,02,59,-5.20
2013,12,04,03,00,-5.20
2013,12,04,03,01,-5.30
2013,12,04,03,02,-5.30
2013,12,04,03,03,-5.30
2013,12,04,03,04,-5.30
2013,12,04,03,05,-5.30
2013,12,04,03,06,-5.30
2013,12,04,03,07,-5.30
2013,12,04,03,08,-5.30
2013,12,04,03,09,-5.30
2013,12,04,03,10,-5.30
2013,12,04,03,11,-5.30
2013,12,04,03,12,-5.30
2013,12,04,03,13,-5.30
2013,12,04,03,14,-5.30
2013,12,04,03,15,-5.30
2013,12,04,03,16,-5.30
2013,12,04,03,17,-5.30
2013,12,04,03,18,-5.30
2013,12,04,03,19,-5.30
2013,12,04,03,20,-5.30
2013,12,04,03,21,-5.30
2013,12,04,03,22,-5.30
2013,12,04,03,23,-5.30
2013,12,04,03,24,-5.30
2013,12,04,03,25,-5.30
2013,12,04,03,26,-5.30
2013,12,04,03,27,-5.30
2013,12,04,03,28,-5.30
2013,12,04,03,29,-5.30
2013,12,04,03,30,-5.30
2013,12,04,03,31,-5.40
2013,12,04,03,32,-5.40
2013,12,04,03,33,-5.40
2013,12,04,03,34,-5.40
2013,12,04,03,35,-5.40
2013,12,04,03,36,-5.40
2013,12,04,03,37,-5.40
2013,12,04,03,38,-5.40
2013,12,04,03,39,-5.40
2013,12,04,03,40,-5.40
2013,12,04,03,41,-5.40
2013,12,04,03,42,-5.40
2013,12,04,03,43,-5.40
2013,12,04,03,44,-5.40
2013,12,04,03,45,-5.40
2013,12,04,03,46,-5.40
2013,12,04,03,47,-5.40
2013,12,04,03,48,-5.50
2013,12,04,03,49,-5.50
2013,12,04,03,50,-5.50
2013,12,04,03,51,-5.50
2013,12,04,03,52,-5.50
2013,12,04,03,53,-5.60
2013,12,04,03,54,-5.60
2013,12,04,03,55,-5.60
2013,12,04,03,56,-5.60
2013,12,04,03,57,-5.60
2013,12,04,03,58,-5.60
2013,12,04,03,59,-5.70
2013,12,04,04,00,-5.70
2013,12,04,04,01,-5.70
2013,12,04,04,02,-5.70
2013,12,04,04,03,-5.70
2013,12,04,04,04,-5.70
2013,12,04,04,05,-5.70
2013,12,04,04,06,-5.70
2013,12,04,04,07,-5.70
2013,12,04,04,08,-5.70
2013,12,04,04,09,-5.70
2013,12,04,04,10,-5.80
2013,12,04,04,11,-5.80
2013,12,04,04,12,-5.70
2013,12,04,04,13,-5.80
2013,12,04,04,14,-5.70
2013,12,04,04,15,-5.80
2013,12,04,04,16,-5.70
2013,12,04,04,17,-5.70
2013,12,04,04,18,-5.70
2013,12,04,04,19,-5.70
2013,12,04,04,20,-5.70
2013,12,04,04,21,-5.80
2013,12,04,04,22,-5.80
2013,12,04,04,23,-5.80
2013,12,04,04,24,-5.80
2013,12,04,04,25,-5.80
2013,12,04,04,26,-5.80
2013,12,04,04,27,-5.80
2013,12,04,04,28,-5.80
2013,12,04,04,29,-5.80
2013,12,04,04,30,-5.80
2013,12,04,04,31,-5.80
2013,12,04,04,32,-5.80
2013,12,04,04,33,-5.80
2013,12,04,04,34,-5.80
2013,12,04,04,35,-5.80
2013,12,04,04,36,-5.80
2013,12,04,04,37,-5.80
2013,12,04,04,38,-5.80
2013,12,04,04,39,-5.80
2013,12,04,04,40,-5.80
2013,12,04,04,41,-5.80
2013,12,04,04,42,-5.80
2013,12,04,04,43,-5.80
2013,12,04,04,44,-5.80
2013,12,04,04,45,-5.80
2013,12,04,04,46,-5.90
2013,12,04,04,47,-5.90
2013,12,04,04,48,-5.90
2013,12,04,04,49,-5.90
2013,12,04,04,50,-5.90
2013,12,04,04,51,-5.90
2013,12,04,04,52,-5.90
2013,12,04,04,53,-5.90
2013,12,04,04,54,-5.90
2013,12,04,04,55,-6.00
2013,12,04,04,56,-6.00
2013,12,04,04,57,-6.00
2013,12,04,04,58,-6.00
2013,12,04,04,59,-6.00
2013,12,04,05,00,-6.00
2013,12,04,05,01,-6.00
2013,12,04,05,02,-6.00
2013,12,04,05,03,-6.00
2013,12,04,05,04,-6.00
2013,12,04,05,05,-6.10
2013,12,04,05,06,-6.10
2013,12,04,05,07,-6.10
2013,12,04,05,08,-6.10
2013,12,04,05,09,-6.10
2013,12,04,05,10,-6.10
2013,12,04,05,11,-6.10
2013,12,04,05,12,-6.10
2013,12,04,05,13,-6.10
2013,12,04,05,14,-6.00
2013,12,04,05,15,-6.00
2013,12,04,05,16,-6.00
2013,12,04,05,17,-6.00
2013,12,04,05,18,-6.00
2013,12,04,05,19,-6.00
2013,12,04,05,20,-6.00
2013,12,04,05,21,-6.00
2013,12,04,05,22,-6.00
2013,12,04,05,23,-6.00
2013,12,04,05,24,-6.00
2013,12,04,05,25,-6.00
2013,12,04,05,26,-6.00
2013,12,04,05,27,-6.00
2013,12,04,05,28,-6.00
2013,12,04,05,29,-6.10
2013,12,04,05,30,-6.10
2013,12,04,05,31,-6.10
2013,12,04,05,32,-6.10
2013,12,04,05,33,-6.10
2013,12,04,05,34,-6.10
2013,12,04,05,35,-6.00
2013,12,04,05,36,-6.10
2013,12,04,05,37,-6.00
2013,12,04,05,38,-6.00
2013,12,04,05,39,-6.00
2013,12,04,05,40,-6.00
2013,12,04,05,41,-6.10
2013,12,04,05,42,-6.10
2013,12,04,05,43,-6.10
2013,12,04,05,44,-6.10
2013,12,04,05,45,-6.10
2013,12,04,05,46,-6.10
2013,12,04,05,47,-6.10
2013,12,04,05,48,-6.10
2013,12,04,05,49,-6.10
2013,12,04,05,50,-6.10
2013,12,04,05,51,-6.10
2013,12,04,05,52,-6.10
2013,12,04,05,53,-6.10
2013,12,04,05,54,-6.10
2013,12,04,05,55,-6.10
2013,12,04,05,56,-6.20
2013,12,04,05,57,-6.20
2013,12,04,05,58,-6.20
2013,12,04,05,59,-6.20
2013,12,04,06,00,-6.20
2013,12,04,06,01,-6.20
2013,12,04,06,02,-6.30
2013,12,04,06,03,-6.30
2013,12,04,06,04,-6.30
2013,12,04,06,05,-6.30
2013,12,04,06,06,-6.30
2013,12,04,06,07,-6.30
2013,12,04,06,08,-6.30
2013,12,04,06,09,-6.30
2013,12,04,06,10,-6.40
2013,12,04,06,11,-6.40
2013,12,04,06,12,-6.40
2013,12,04,06,13,-6.40
2013,12,04,06,14,-6.40
2013,12,04,06,15,-6.40
2013,12,04,06,16,-6.40
2013,12,04,06,17,-6.40
2013,12,04,06,18,-6.40
2013,12,04,06,19,-6.30
2013,12,04,06,20,-6.40
2013,12,04,06,21,-6.40
2013,12,04,06,22,-6.40
2013,12,04,06,23,-6.40
2013,12,04,06,24,-6.40
2013,12,04,06,25,-6.40
2013,12,04,06,26,-6.40
2013,12,04,06,27,-6.40
2013,12,04,06,28,-6.40
2013,12,04,06,29,-6.40
2013,12,04,06,30,-6.40
2013,12,04,06,31,-6.50
2013,12,04,06,32,-6.50
2013,12,04,06,33,-6.50
2013,12,04,06,34,-6.50
2013,12,04,06,35,-6.50
2013,12,04,06,36,-6.50
2013,12,04,06,37,-6.50
2013,12,04,06,38,-6.50
2013,12,04,06,39,-6.50
2013,12,04,06,40,-6.50
2013,12,04,06,41,-6.50
2013,12,04,06,42,-6.50
2013,12,04,06,43,-6.50
2013,12,04,06,44,-6.50
2013,12,04,06,45,-6.50
2013,12,04,06,46,-6.50
2013,12,04,06,47,-6.50
2013,12,04,06,48,-6.50
2013,12,04,06,49,-6.50
2013,12,04,06,50,-6.50
2013,12,04,06,51,-6.50
2013,12,04,06,52,-6.50
2013,12,04,06,53,-6.50
2013,12,04,06,54,-6.50
2013,12,04,06,55,-6.50
2013,12,04,06,56,-6.60
2013,12,04,06,57,-6.60
2013,12,04,06,58,-6.60
2013,12,04,06,59,-6.60
2013,12,04,07,00,-6.60
2013,12,04,07,01,-6.60
2013,12,04,07,02,-6.60
2013,12,04,07,03,-6.60
2013,12,04,07,04,-6.60
2013,12,04,07,05,-6.60
2013,12,04,07,06,-6.60
2013,12,04,07,07,-6.60
2013,12,04,07,08,-6.60
2013,12,04,07,09,-6.60
2013,12,04,07,10,-6.60
2013,12,04,07,11,-6.60
2013,12,04,07,12,-6.60
2013,12,04,07,13,-6.60
2013,12,04,07,14,-6.60
2013,12,04,07,15,-6.70
2013,12,04,07,16,-6.70
2013,12,04,07,17,-6.70
2013,12,04,07,18,-6.70
2013,12,04,07,19,-6.70
2013,12,04,07,20,-6.70
2013,12,04,07,21,-6.70
2013,12,04,07,22,-6.70
2013,12,04,07,23,-6.70
2013,12,04,07,24,-6.70
2013,12,04,07,25,-6.70
2013,12,04,07,26,-6.70
2013,12,04,07,27,-6.70
2013,12,04,07,28,-6.70
2013,12,04,07,29,-6.70
2013,12,04,07,30,-6.70
2013,12,04,07,31,-6.70
2013,12,04,07,32,-6.70
2013,12,04,07,33,-6.70
2013,12,04,07,34,-6.70
2013,12,04,07,35,-6.70
2013,12,04,07,36,-6.70
2013,12,04,07,37,-6.70
2013,12,04,07,38,-6.70
2013,12,04,07,39,-6.70
2013,12,04,07,40,-6.70
2013,12,04,07,41,-6.70
2013,12,04,07,42,-6.70
2013,12,04,07,43,-6.70
2013,12,04,07,44,-6.70
2013,12,04,07,45,-6.70
2013,12,04,07,46,-6.70
2013,12,04,07,47,-6.70
2013,12,04,07,48,-6.70
2013,12,04,07,49,-6.70
2013,12,04,07,50,-6.70
2013,12,04,07,51,-6.70
2013,12,04,07,52,-6.70
2013,12,04,07,53,-6.70
2013,12,04,07,54,-6.80
2013,12,04,07,55,-6.80
2013,12,04,07,56,-6.80
2013,12,04,07,57,-6.80
2013,12,04,07,58,-6.80
2013,12,04,07,59,-6.80
2013,12,04,08,00,-6.80
2013,12,04,08,01,-6.80
2013,12,04,08,02,-6.80
2013,12,04,08,03,-6.80
2013,12,04,08,04,-6.80
2013,12,04,08,05,-6.80
2013,12,04,08,06,-6.80
2013,12,04,08,07,-6.80
2013,12,04,08,08,-6.80
2013,12,04,08,09,-6.80
2013,12,04,08,10,-6.80
2013,12,04,08,11,-6.80
2013,12,04,08,12,-6.80
2013,12,04,08,13,-6.80
2013,12,04,08,14,-6.80
2013,12,04,08,15,-6.80
2013,12,04,08,16,-6.80
2013,12,04,08,17,-6.80
2013,12,04,08,18,-6.80
2013,12,04,08,19,-6.80
2013,12,04,08,20,-6.80
2013,12,04,08,21,-6.80
2013,12,04,08,22,-6.80
2013,12,04,08,23,-6.80
2013,12,04,08,24,-6.80
2013,12,04,08,25,-6.80
2013,12,04,08,26,-6.80
2013,12,04,08,27,-6.80
2013,12,04,08,28,-6.80
2013,12,04,08,29,-6.80
2013,12,04,08,30,-6.80
2013,12,04,08,31,-6.80
2013,12,04,08,32,-6.80
2013,12,04,08,33,-6.80
2013,12,04,08,34,-6.80
2013,12,04,08,35,-6.70
2013,12,04,08,36,-6.70
2013,12,04,08,37,-6.70
2013,12,04,08,38,-6.70
2013,12,04,08,39,-6.70
2013,12,04,08,40,-6.70
2013,12,04,08,41,-6.60
2013,12,04,08,42,-6.60
2013,12,04,08,43,-6.60
2013,12,04,08,44,-6.60
2013,12,04,08,45,-6.50
2013,12,04,08,46,-6.50
2013,12,04,08,47,-6.40
2013,12,04,08,48,-6.40
2013,12,04,08,49,-6.30
2013,12,04,08,50,-6.30
2013,12,04,08,51,-6.30
2013,12,04,08,52,-6.20
2013,12,04,08,53,-6.20
2013,12,04,08,54,-6.20
2013,12,04,08,55,-6.10
2013,12,04,08,56,-6.10
2013,12,04,08,57,-6.00
2013,12,04,08,58,-6.00
2013,12,04,08,59,-5.90
2013,12,04,09,00,-5.80
2013,12,04,09,01,-5.70
2013,12,04,09,02,-5.60
2013,12,04,09,03,-5.50
2013,12,04,09,04,-5.40
2013,12,04,09,05,-5.30
2013,12,04,09,06,-5.20
2013,12,04,09,07,-5.20
2013,12,04,09,08,-5.10
2013,12,04,09,09,-5.10
2013,12,04,09,10,-5.00
2013,12,04,09,11,-5.00
2013,12,04,09,12,-5.00
2013,12,04,09,13,-5.00
2013,12,04,09,14,-4.90
2013,12,04,09,15,-4.90
2013,12,04,09,16,-4.90
2013,12,04,09,17,-4.80
2013,12,04,09,18,-4.70
2013,12,04,09,19,-4.60
2013,12,04,09,20,-4.50
2013,12,04,09,21,-4.40
2013,12,04,09,22,-4.30
2013,12,04,09,23,-4.20
2013,12,04,09,24,-4.10
2013,12,04,09,25,-4.00
2013,12,04,09,26,-3.90
2013,12,04,09,27,-3.80
2013,12,04,09,28,-3.70
2013,12,04,09,29,-3.70
2013,12,04,09,30,-3.70
2013,12,04,09,31,-3.70
2013,12,04,09,32,-3.70
2013,12,04,09,33,-3.70
2013,12,04,09,34,-3.70
2013,12,04,09,35,-3.70
2013,12,04,09,36,-3.60
2013,12,04,09,37,-3.60
2013,12,04,09,38,-3.50
2013,12,04,09,39,-3.50
2013,12,04,09,40,-3.40
2013,12,04,09,41,-3.30
2013,12,04,09,42,-3.20
2013,12,04,09,43,-3.10
2013,12,04,09,44,-3.00
2013,12,04,09,45,-2.90
2013,12,04,09,46,-2.90
2013,12,04,09,47,-2.80
2013,12,04,09,48,-2.80
2013,12,04,09,49,-2.70
2013,12,04,09,50,-2.70
2013,12,04,09,51,-2.70
2013,12,04,09,52,-2.60
2013,12,04,09,53,-2.60
2013,12,04,09,54,-2.50
2013,12,04,09,55,-2.50
2013,12,04,09,56,-2.40
2013,12,04,09,57,-2.40
2013,12,04,09,58,-2.30
2013,12,04,09,59,-2.30
2013,12,04,10,00,-2.20
2013,12,04,10,01,-2.20
2013,12,04,10,02,-2.10
2013,12,04,10,03,-2.00
2013,12,04,10,04,-2.00
2013,12,04,10,05,-1.90
2013,12,04,10,06,-1.80
2013,12,04,10,07,-1.80
2013,12,04,10,08,-1.70
2013,12,04,10,09,-1.70
2013,12,04,10,10,-1.70
2013,12,04,10,11,-1.70
2013,12,04,10,12,-1.70
2013,12,04,10,13,-1.70
2013,12,04,10,14,-1.60
2013,12,04,10,15,-1.60
2013,12,04,10,16,-1.50
2013,12,04,10,17,-1.50
2013,12,04,10,18,-1.40
2013,12,04,10,19,-1.40
2013,12,04,10,20,-1.30
2013,12,04,10,21,-1.30
2013,12,04,10,22,-1.30
2013,12,04,10,23,-1.40
2013,12,04,10,24,-1.40
2013,12,04,10,25,-1.40
2013,12,04,10,26,-1.30
2013,12,04,10,27,-1.30
2013,12,04,10,28,-1.20
2013,12,04,10,29,-1.10
2013,12,04,10,30,-1.10
2013,12,04,10,31,-1.00
2013,12,04,10,32,-1.00
2013,12,04,10,33,-0.90
2013,12,04,10,34,-0.90
2013,12,04,10,35,-0.80
2013,12,04,10,36,-0.80
2013,12,04,10,37,-0.70
2013,12,04,10,38,-0.70
2013,12,04,10,39,-0.70
2013,12,04,10,40,-0.60
2013,12,04,10,41,-0.60
2013,12,04,10,42,-0.50
2013,12,04,10,43,-0.50
2013,12,04,10,44,-0.50
2013,12,04,10,45,-0.40
2013,12,04,10,46,-0.40
2013,12,04,10,47,-0.40
2013,12,04,10,48,-0.40
2013,12,04,10,49,-0.40
2013,12,04,10,50,-0.40
2013,12,04,10,51,-0.40
2013,12,04,10,52,-0.40
2013,12,04,10,53,-0.30
2013,12,04,10,54,-0.30
2013,12,04,10,55,-0.30
2013,12,04,10,56,-0.20
2013,12,04,10,57,-0.20
2013,12,04,10,58,-0.20
2013,12,04,10,59,-0.10
2013,12,04,11,00,-0.10
2013,12,04,11,01,-0.10
2013,12,04,11,02,-0.10
2013,12,04,11,03,-0.10
2013,12,04,11,04,-0.10
2013,12,04,11,05,-0.10
2013,12,04,11,06,-0.10
2013,12,04,11,07,-0.10
2013,12,04,11,08,-0.10
2013,12,04,11,09,-0.10
2013,12,04,11,10,0.00
2013,12,04,11,11,0.10
2013,12,04,11,12,0.20
2013,12,04,11,13,0.20
2013,12,04,11,14,0.20
2013,12,04,11,15,0.30
2013,12,04,11,16,0.20
2013,12,04,11,17,0.20
2013,12,04,11,18,0.20
2013,12,04,11,19,0.20
2013,12,04,11,20,0.20
2013,12,04,11,21,0.20
2013,12,04,11,22,0.20
2013,12,04,11,23,0.20
2013,12,04,11,24,0.30
2013,12,04,11,25,0.30
2013,12,04,11,26,0.40
2013,12,04,11,27,0.50
2013,12,04,11,28,0.60
2013,12,04,11,29,0.70
2013,12,04,11,30,0.70
2013,12,04,11,31,0.70
2013,12,04,11,32,0.70
2013,12,04,11,33,0.80
2013,12,04,11,34,0.80
2013,12,04,11,35,0.90
2013,12,04,11,36,1.00
2013,12,04,11,37,1.00
2013,12,04,11,38,1.00
2013,12,04,11,39,1.00
2013,12,04,11,40,1.00
2013,12,04,11,41,1.00
2013,12,04,11,42,1.00
2013,12,04,11,43,1.00
2013,12,04,11,44,0.90
2013,12,04,11,45,0.90
2013,12,04,11,46,0.90
2013,12,04,11,47,0.90
2013,12,04,11,48,0.90
2013,12,04,11,49,0.80
2013,12,04,11,50,0.80
2013,12,04,11,51,0.80
2013,12,04,11,52,0.80
2013,12,04,11,53,0.80
2013,12,04,11,54,0.80
2013,12,04,11,55,0.80
2013,12,04,11,56,0.80
2013,12,04,11,57,0.80
2013,12,04,11,58,0.80
2013,12,04,11,59,0.80
2013,12,04,12,00,0.80
2013,12,04,12,01,0.80
2013,12,04,12,02,0.80
2013,12,04,12,03,0.80
2013,12,04,12,04,0.80
2013,12,04,12,05,0.80
2013,12,04,12,06,0.80
2013,12,04,12,07,0.80
2013,12,04,12,08,0.80
2013,12,04,12,09,0.80
2013,12,04,12,10,0.80
2013,12,04,12,11,0.80
2013,12,04,12,12,0.80
2013,12,04,12,13,0.80
2013,12,04,12,14,0.80
2013,12,04,12,15,0.80
2013,12,04,12,16,0.80
2013,12,04,12,17,0.80
2013,12,04,12,18,0.80
2013,12,04,12,19,0.80
2013,12,04,12,20,0.80
2013,12,04,12,21,0.80
2013,12,04,12,22,0.80
2013,12,04,12,23,0.80
2013,12,04,12,24,0.80
2013,12,04,12,25,0.80
2013,12,04,12,26,0.80
2013,12,04,12,27,0.90
2013,12,04,12,28,0.90
2013,12,04,12,29,1.00
2013,12,04,12,30,1.10
2013,12,04,12,31,1.10
2013,12,04,12,32,1.20
2013,12,04,12,33,1.20
2013,12,04,12,34,1.30
2013,12,04,12,35,1.30
2013,12,04,12,36,1.30
2013,12,04,12,37,1.30
2013,12,04,12,38,1.30
2013,12,04,12,39,1.30
2013,12,04,12,40,1.30
2013,12,04,12,41,1.30
2013,12,04,12,42,1.40
2013,12,04,12,43,1.40
2013,12,04,12,44,1.40
2013,12,04,12,45,1.40
2013,12,04,12,46,1.40
2013,12,04,12,47,1.40
2013,12,04,12,48,1.40
2013,12,04,12,49,1.40
2013,12,04,12,50,1.30
2013,12,04,12,51,1.30
2013,12,04,12,52,1.30
2013,12,04,12,53,1.30
2013,12,04,12,54,1.30
2013,12,04,12,55,1.30
2013,12,04,12,56,1.30
2013,12,04,12,57,1.30
2013,12,04,12,58,1.20
2013,12,04,12,59,1.20
2013,12,04,13,00,1.10
2013,12,04,13,01,1.10
2013,12,04,13,02,1.10
2013,12,04,13,03,1.20
2013,12,04,13,04,1.10
2013,12,04,13,05,1.10
2013,12,04,13,06,1.10
2013,12,04,13,07,1.00
2013,12,04,13,08,1.00
2013,12,04,13,09,1.00
2013,12,04,13,10,1.00
2013,12,04,13,11,1.10
2013,12,04,13,12,1.10
2013,12,04,13,13,1.10
2013,12,04,13,14,1.10
2013,12,04,13,15,1.20
2013,12,04,13,16,1.20
2013,12,04,13,17,1.30
2013,12,04,13,18,1.30
2013,12,04,13,19,1.30
2013,12,04,13,20,1.30
2013,12,04,13,21,1.30
2013,12,04,13,22,1.30
2013,12,04,13,23,1.30
2013,12,04,13,24,1.30
2013,12,04,13,25,1.30
2013,12,04,13,26,1.20
2013,12,04,13,27,1.20
2013,12,04,13,28,1.20
2013,12,04,13,29,1.10
2013,12,04,13,30,1.10
2013,12,04,13,31,1.20
2013,12,04,13,32,1.20
2013,12,04,13,33,1.20
2013,12,04,13,34,1.20
2013,12,04,13,35,1.20
2013,12,04,13,36,1.20
2013,12,04,13,37,1.20
2013,12,04,13,38,1.20
2013,12,04,13,39,1.10
2013,12,04,13,40,1.10
2013,12,04,13,41,1.20
2013,12,04,13,42,1.20
2013,12,04,13,43,1.10
2013,12,04,13,44,1.10
2013,12,04,13,45,1.00
2013,12,04,13,46,1.00
2013,12,04,13,47,0.90
2013,12,04,13,48,1.00
2013,12,04,13,49,1.00
2013,12,04,13,50,1.00
2013,12,04,13,51,1.10
2013,12,04,13,52,1.10
2013,12,04,13,53,1.10
2013,12,04,13,54,1.00
2013,12,04,13,55,1.00
2013,12,04,13,56,1.00
2013,12,04,13,57,1.00
2013,12,04,13,58,1.00
2013,12,04,13,59,1.00
2013,12,04,14,00,1.10
2013,12,04,14,01,1.00
2013,12,04,14,02,1.00
2013,12,04,14,03,0.90
2013,12,04,14,04,0.90
2013,12,04,14,05,0.90
2013,12,04,14,06,0.80
2013,12,04,14,07,0.80
2013,12,04,14,08,0.80
2013,12,04,14,09,0.80
2013,12,04,14,10,0.80
2013,12,04,14,11,0.80
2013,12,04,14,12,0.80
2013,12,04,14,13,0.80
2013,12,04,14,14,0.80
2013,12,04,14,15,0.80
2013,12,04,14,16,0.90
2013,12,04,14,17,0.90
2013,12,04,14,18,0.90
2013,12,04,14,19,0.90
2013,12,04,14,20,0.90
2013,12,04,14,21,0.90
2013,12,04,14,22,0.90
2013,12,04,14,23,1.00
2013,12,04,14,24,1.00
2013,12,04,14,25,0.90
2013,12,04,14,26,0.90
2013,12,04,14,27,0.90
2013,12,04,14,28,0.90
2013,12,04,14,29,0.90
2013,12,04,14,30,0.90
2013,12,04,14,31,0.90
2013,12,04,14,32,0.90
2013,12,04,14,33,0.90
2013,12,04,14,34,0.90
2013,12,04,14,35,0.90
2013,12,04,14,36,0.90
2013,12,04,14,37,0.90
2013,12,04,14,38,0.80
2013,12,04,14,39,0.80
2013,12,04,14,40,0.80
2013,12,04,14,41,0.80
2013,12,04,14,42,0.80
2013,12,04,14,43,0.80
2013,12,04,14,44,0.70
2013,12,04,14,45,0.70
2013,12,04,14,46,0.70
2013,12,04,14,47,0.70
2013,12,04,14,48,0.70
2013,12,04,14,49,0.60
2013,12,04,14,50,0.60
2013,12,04,14,51,0.60
2013,12,04,14,52,0.60
2013,12,04,14,53,0.60
2013,12,04,14,54,0.60
2013,12,04,14,55,0.50
2013,12,04,14,56,0.50
2013,12,04,14,57,0.50
2013,12,04,14,58,0.50
2013,12,04,14,59,0.50
2013,12,04,15,00,0.50
2013,12,04,15,01,0.50
2013,12,04,15,02,0.40
2013,12,04,15,03,0.40
2013,12,04,15,04,0.40
2013,12,04,15,05,0.40
2013,12,04,15,06,0.40
2013,12,04,15,07,0.40
2013,12,04,15,08,0.40
2013,12,04,15,09,0.30
2013,12,04,15,10,0.30
2013,12,04,15,11,0.30
2013,12,04,15,12,0.30
2013,12,04,15,13,0.30
2013,12,04,15,14,0.30
2013,12,04,15,15,0.20
2013,12,04,15,16,0.20
2013,12,04,15,17,0.20
2013,12,04,15,18,0.20
2013,12,04,15,19,0.20
2013,12,04,15,20,0.20
2013,12,04,15,21,0.20
2013,12,04,15,22,0.20
2013,12,04,15,23,0.10
2013,12,04,15,24,0.10
2013,12,04,15,25,0.10
2013,12,04,15,26,0.10
2013,12,04,15,27,0.00
2013,12,04,15,28,0.00
2013,12,04,15,29,0.00
2013,12,04,15,30,0.00
2013,12,04,15,31,-0.10
2013,12,04,15,32,-0.10
2013,12,04,15,33,-0.10
2013,12,04,15,34,-0.10
2013,12,04,15,35,-0.10
2013,12,04,15,36,-0.10
2013,12,04,15,37,-0.20
2013,12,04,15,38,-0.20
2013,12,04,15,39,-0.20
2013,12,04,15,40,-0.30
2013,12,04,15,41,-0.30
2013,12,04,15,42,-0.30
2013,12,04,15,43,-0.40
2013,12,04,15,44,-0.40
2013,12,04,15,45,-0.40
2013,12,04,15,46,-0.50
2013,12,04,15,47,-0.50
2013,12,04,15,48,-0.50
2013,12,04,15,49,-0.60
2013,12,04,15,50,-0.60
2013,12,04,15,51,-0.70
2013,12,04,15,52,-0.70
2013,12,04,15,53,-0.70
2013,12,04,15,54,-0.80
2013,12,04,15,55,-0.80
2013,12,04,15,56,-0.80
2013,12,04,15,57,-0.80
2013,12,04,15,58,-0.90
2013,12,04,15,59,-0.90
2013,12,04,16,00,-0.90
2013,12,04,16,01,-0.90
2013,12,04,16,02,-0.90
2013,12,04,16,03,-0.90
2013,12,04,16,04,-1.00
2013,12,04,16,05,-1.00
2013,12,04,16,06,-1.10
2013,12,04,16,07,-1.10
2013,12,04,16,08,-1.10
2013,12,04,16,09,-1.10
2013,12,04,16,10,-1.10
2013,12,04,16,11,-1.20
2013,12,04,16,12,-1.20
2013,12,04,16,13,-1.20
2013,12,04,16,14,-1.20
2013,12,04,16,15,-1.20
2013,12,04,16,16,-1.20
2013,12,04,16,17,-1.30
2013,12,04,16,18,-1.30
2013,12,04,16,19,-1.30
2013,12,04,16,20,-1.30
2013,12,04,16,21,-1.30
2013,12,04,16,22,-1.30
2013,12,04,16,23,-1.40
2013,12,04,16,24,-1.40
2013,12,04,16,25,-1.40
2013,12,04,16,26,-1.50
2013,12,04,16,27,-1.50
2013,12,04,16,28,-1.50
2013,12,04,16,29,-1.60
2013,12,04,16,30,-1.60
2013,12,04,16,31,-1.60
2013,12,04,16,32,-1.70
2013,12,04,16,33,-1.70
2013,12,04,16,34,-1.70
2013,12,04,16,35,-1.70
2013,12,04,16,36,-1.80
2013,12,04,16,37,-1.80
2013,12,04,16,38,-1.80
2013,12,04,16,39,-1.80
2013,12,04,16,40,-1.80
2013,12,04,16,41,-1.90
2013,12,04,16,42,-1.90
2013,12,04,16,43,-1.90
2013,12,04,16,44,-1.90
2013,12,04,16,45,-1.90
2013,12,04,16,46,-2.00
2013,12,04,16,47,-2.00
2013,12,04,16,48,-2.00
2013,12,04,16,49,-2.10
2013,12,04,16,50,-2.10
2013,12,04,16,51,-2.10
2013,12,04,16,52,-2.10
2013,12,04,16,53,-2.10
2013,12,04,16,54,-2.20
2013,12,04,16,55,-2.20
2013,12,04,16,56,-2.20
2013,12,04,16,57,-2.20
2013,12,04,16,58,-2.20
2013,12,04,16,59,-2.20
2013,12,04,17,00,-2.20
2013,12,04,17,01,-2.20
2013,12,04,17,02,-2.30
2013,12,04,17,03,-2.30
2013,12,04,17,04,-2.30
2013,12,04,17,05,-2.30
2013,12,04,17,06,-2.30
2013,12,04,17,07,-2.30
2013,12,04,17,08,-2.40
2013,12,04,17,09,-2.40
2013,12,04,17,10,-2.40
2013,12,04,17,11,-2.40
2013,12,04,17,12,-2.40
2013,12,04,17,13,-2.40
2013,12,04,17,14,-2.50
2013,12,04,17,15,-2.50
2013,12,04,17,16,-2.50
2013,12,04,17,17,-2.50
2013,12,04,17,18,-2.60
2013,12,04,17,19,-2.60
2013,12,04,17,20,-2.60
2013,12,04,17,21,-2.60
2013,12,04,17,22,-2.70
2013,12,04,17,23,-2.70
2013,12,04,17,24,-2.70
2013,12,04,17,25,-2.70
2013,12,04,17,26,-2.80
2013,12,04,17,27,-2.80
2013,12,04,17,28,-2.80
2013,12,04,17,29,-2.80
2013,12,04,17,30,-2.80